Location: Newark
(43.6583°N, 1.6617°E)
Time: 17:42:00
(UTC+00:00)

Vanguard 1 Rocket - Pass Details

Date: 21 August 2019
Orbit: 650 x 4226 km, 34.3° (Epoch: 13 October)

Event Time Altitude Azimuth Distance (km) Brightness Sun altitude
Rises 03:59:42 0° 248° (WSW) 3,058 - -11.5°
Reaches altitude 10° 04:01:51 10° 239° (WSW) 2,273 - -11.2°
Exits shadow 04:02:36 14° 234° (SW) 2,035 8.5 -11.0°
Maximum altitude 04:06:32 36° 172° (S) 1,475 8.3 -10.4°
Drops below altitude 10° 04:13:52 10° 109° (ESE) 3,593 11.1 -9.2°
Sets 04:18:13 0° 102° (ESE) 5,149 12.2 -8.5°
